Weather History for Somerville, NJ

Change the Weather History Date:

Friday, October 26, 2012

  Actual Average Record
Temperature  
Mean Temperature 62 °F -  
Max Temperature 66 °F 61 °F 82 °F (1963)
Min Temperature 57 °F 38 °F 22 °F (1952)
Degree Days  
Heating Degree Days 4    
Growing Degree Days 12 (Base 50)    
Moisture  
Dew Point 56 °F    
Average Humidity 85    
Maximum Humidity 96    
Minimum Humidity 70    
Precipitation  
Precipitation 0.00 in - - ()
Sea Level Pressure  
Sea Level Pressure 30.17 in    
Wind  
Wind Speed 0 mph (NNW)    
Max Wind Speed 4 mph    
Max Gust Speed -    
Visibility 9 miles    
Events      
Averages and records for this station are not official NWS values.
T = Trace of Precipitation, MM = Missing Value Source: NWS Daily Summary

Daily Weather History Graph

Daily Weather History Graph

Search for Another Location

Airport:

Trip Planner

Search our weather history database for the weather conditions in past years. The results will help you decide how hot, cold, wet, or windy it might be!

Date:

Astronomy

Oct. 26, 2012 Rise Set
Actual Time 7:22 AM EDT 6:02 PM EDT
Civil Twilight 6:54 AM EDT 6:30 PM EDT
Nautical Twilight 6:22 AM EDT 7:02 PM EDT
Astronomical Twilight 5:50 AM EDT 7:33 PM EDT
Moon 4:17 PM EDT (10/26) 4:15 AM EDT (10/26)
Length of Visible Light 11h 35m
Length of Day
10h 39m
Waxing Gibbous, 91% of the Moon is Illuminated
Oct 26
Waxing Gibbous
Oct 29
Full
Nov 6
Last Quarter
Nov 13
New
Nov 20
First Quarter

Hourly Weather History & Observations

Time (EDT) Temp. Dew Point Humidity Pressure Visibility Wind Dir Wind Speed Gust Speed Precip Events Conditions
12:28 AM 57.2 °F 55.4 °F 94% 30.22 in 6.0 mi Calm Calm - N/A   Overcast
12:53 AM 57.9 °F 55.9 °F 93% 30.22 in 6.0 mi Calm Calm - N/A   Overcast
2:53 AM 57.2 °F 55.4 °F 94% 30.20 in 8.0 mi Calm Calm - N/A   Overcast
3:53 AM 57.9 °F 55.9 °F 93% 30.20 in 8.0 mi Calm Calm - N/A   Overcast
4:53 AM 57.9 °F 55.9 °F 93% 30.20 in 10.0 mi Calm Calm - N/A   Overcast
5:53 AM 57.9 °F 55.9 °F 93% 30.20 in 8.0 mi Calm Calm - N/A   Overcast
6:53 AM 57.0 °F 55.9 °F 96% 30.20 in 10.0 mi Calm Calm - N/A   Overcast
7:53 AM 57.9 °F 55.9 °F 93% 30.22 in 7.0 mi Calm Calm - N/A   Overcast
8:53 AM 57.9 °F 55.9 °F 93% 30.22 in 8.0 mi Calm Calm - N/A   Overcast
9:53 AM 60.1 °F 57.0 °F 90% 30.22 in 10.0 mi Calm Calm - N/A   Overcast
10:53 AM 61.0 °F 57.0 °F 87% 30.21 in 10.0 mi Calm Calm - N/A   Overcast
11:53 AM 63.0 °F 55.9 °F 78% 30.20 in 10.0 mi Calm Calm - N/A   Overcast
12:53 PM 63.0 °F 55.9 °F 78% 30.19 in 10.0 mi Calm Calm - N/A   Overcast
1:53 PM 66.0 °F 55.9 °F 70% 30.14 in 10.0 mi Calm Calm - N/A   Overcast
2:01 PM 64.4 °F 55.4 °F 73% 30.14 in 10.0 mi Calm Calm - N/A   Overcast
2:53 PM 66.0 °F 55.9 °F 70% 30.13 in 10.0 mi Calm Calm - N/A   Overcast
3:53 PM 64.9 °F 55.9 °F 73% 30.12 in 10.0 mi NNW 3.5 mph - N/A   Overcast
4:53 PM 64.9 °F 55.9 °F 73% 30.11 in 10.0 mi NNW 3.5 mph - N/A   Overcast
5:53 PM 63.0 °F 57.0 °F 81% 30.11 in 10.0 mi Calm Calm - N/A   Overcast
6:53 PM 63.0 °F 57.0 °F 81% 30.12 in 10.0 mi Calm Calm - N/A   Overcast
7:53 PM 62.1 °F 57.0 °F 84% 30.12 in 10.0 mi Calm Calm - N/A   Overcast
8:53 PM 62.1 °F 57.0 °F 84% 30.12 in 10.0 mi Calm Calm - N/A   Overcast
9:53 PM 62.1 °F 57.0 °F 84% 30.12 in 10.0 mi Calm Calm - N/A   Overcast
10:53 PM 61.0 °F 57.0 °F 87% 30.11 in 10.0 mi Calm Calm - N/A   Overcast
11:53 PM 61.0 °F 57.0 °F 87% 30.09 in 10.0 mi Calm Calm - N/A   Overcast